Pineville, WV

4:10 PM EST on November 11, 2019 (GMT -0500)
Pineville

Weather History for KI16 - October, 2019

Change the Weather History Date:

Sunday, October 13, 2019

  Actual Average (KBKW) Record (KBKW)
Temperature  
Mean Temperature 58 °F -  
Max Temperature 72 °F 65 °F 83 °F (1954)
Min Temperature 43 °F 44 °F 23 °F (1939)
Degree Days  
Heating Degree Days 8    
Growing Degree Days 8 (Base 50)    
Moisture  
Dew Point 44 °F    
Average Humidity 78    
Maximum Humidity 99    
Minimum Humidity 26    
Precipitation  
Precipitation 0.00 in - - ()
Sea Level Pressure  
Sea Level Pressure 30.09 in    
Wind  
Wind Speed - (North)    
Max Wind Speed -    
Max Gust Speed -    
Visibility 8 miles    
Events Fog    
Averages and records for this station are not official NWS values.
T = Trace of Precipitation, MM = Missing Value Source: NWS Daily Summary

Daily Weather History Graph

Daily Weather History Graph

Search for Another Location

Airport or City:

Astronomy

Oct. 13, 2019 Rise Set
Actual Time 7:32 AM EDT 6:52 PM EDT
Civil Twilight 7:06 AM EDT 7:18 PM EDT
Nautical Twilight 6:35 AM EDT 7:48 PM EDT
Astronomical Twilight 6:05 AM EDT 8:18 PM EDT
Moon 7:12 PM EDT (10/13) 7:06 AM EDT (10/13)
Length of Visible Light 12h 12m
Length of Day
11h 19m
Full, 100% of the Moon is Illuminated
Oct 13
Full
Oct 13
Full
Oct 21
Last Quarter
Oct 27
New
Nov 4
First Quarter

Hourly Weather History & Observations

Time (EDT) Temp. Dew Point Humidity Pressure Visibility Wind Dir Wind Speed Gust Speed Precip Events Conditions
12:15 AM 44.2 °F 43.7 °F 98% 30.16 in 0.8 mi North - - N/A   Overcast
12:35 AM 44.6 °F 43.9 °F 97% 30.15 in 0.5 mi North - - N/A Fog Fog
12:55 AM 44.6 °F 43.9 °F 97% 30.15 in 0.8 mi North - - N/A   Overcast
1:15 AM 45.0 °F 44.6 °F 99% 30.14 in 4.0 mi North - - N/A   Overcast
1:35 AM 45.1 °F 44.6 °F 98% 30.14 in 7.0 mi North - - N/A   Overcast
1:55 AM 45.3 °F 44.8 °F 98% 30.14 in 10.0 mi North - - N/A   Overcast
2:15 AM 45.0 °F 44.6 °F 99% 30.14 in 10.0 mi North - - N/A   Overcast
2:35 AM 45.1 °F 44.6 °F 98% 30.13 in 10.0 mi North - - N/A   Overcast
2:55 AM 45.0 °F 44.2 °F 97% 30.13 in 10.0 mi North - - N/A   Overcast
3:15 AM 44.8 °F 44.1 °F 97% 30.14 in 7.0 mi North - - N/A   Overcast
3:35 AM 45.0 °F 44.4 °F 98% 30.13 in 4.0 mi North - - N/A   Overcast
3:55 AM 45.1 °F 44.4 °F 97% 30.13 in 3.0 mi North - - N/A   Overcast
4:15 AM 44.6 °F 43.9 °F 97% 30.13 in 5.0 mi North - - N/A   Overcast
4:35 AM 44.6 °F 43.9 °F 97% 30.13 in 7.0 mi North - - N/A   Overcast
4:55 AM 44.8 °F 44.2 °F 98% 30.13 in 7.0 mi North - - N/A   Overcast
5:15 AM 44.4 °F 43.7 °F 97% 30.13 in 2.5 mi North - - N/A   Overcast
5:35 AM 43.9 °F 43.3 °F 98% 30.12 in 4.0 mi North - - N/A   Overcast
5:55 AM 43.5 °F 43.0 °F 98% 30.13 in 2.0 mi North - - N/A   Overcast
6:35 AM 43.7 °F 43.0 °F 97% 30.13 in 0.8 mi North - - N/A   Overcast
6:55 AM 43.7 °F 43.0 °F 97% 30.14 in 1.0 mi North - - N/A   Overcast
7:15 AM 43.5 °F 43.0 °F 98% 30.14 in 0.8 mi North - - N/A   Overcast
7:35 AM 43.5 °F 43.0 °F 98% 30.14 in 0.5 mi North - - N/A Fog Fog
7:55 AM 43.7 °F 43.0 °F 97% 30.13 in 0.5 mi North - - N/A Fog Fog
8:15 AM 43.0 °F 42.6 °F 99% 30.12 in 0.8 mi North - - N/A   Overcast
8:55 AM 43.0 °F 42.6 °F 99% 30.13 in 0.2 mi North - - N/A Fog Fog
9:35 AM 44.1 °F 43.7 °F 99% 30.12 in 1.0 mi North - - N/A   Overcast
9:55 AM 44.6 °F 44.1 °F 98% 30.12 in 10.0 mi North - - N/A   Overcast
10:15 AM 46.6 °F 46.0 °F 98% 30.13 in 10.0 mi North - - N/A   Overcast
10:35 AM 48.0 °F 46.8 °F 95% 30.12 in 10.0 mi North - - N/A   Mostly Cloudy
10:55 AM 52.2 °F 48.4 °F 87% 30.12 in 10.0 mi North - - N/A   Scattered Clouds
11:15 AM 53.8 °F 48.0 °F 81% 30.11 in 10.0 mi North - - N/A   Clear
11:35 AM 55.8 °F 48.6 °F 77% 30.12 in 10.0 mi North - - N/A   Clear
11:55 AM 56.7 °F 48.0 °F 73% 30.11 in 10.0 mi North - - N/A   Clear
12:15 PM 59.0 °F 47.5 °F 66% 30.11 in 10.0 mi North - - N/A   Clear
12:35 PM 60.8 °F 47.5 °F 62% 30.10 in 10.0 mi North - - N/A   Clear
12:55 PM 61.7 °F 47.5 °F 60% 30.10 in 10.0 mi North - - N/A   Clear
1:15 PM 63.1 °F 46.8 °F 55% 30.09 in 10.0 mi North - - N/A   Clear
1:35 PM 63.9 °F 46.9 °F 54% 30.08 in 10.0 mi North - - N/A   Clear
1:55 PM 66.4 °F 47.5 °F 51% 30.06 in 10.0 mi North - - N/A   Clear
2:15 PM 67.6 °F 45.5 °F 45% 30.05 in 10.0 mi North - - N/A   Clear
2:35 PM 69.4 °F 45.1 °F 42% 30.05 in 10.0 mi North - - N/A   Clear
2:55 PM 69.8 °F 41.0 °F 35% 30.04 in 10.0 mi North - - N/A   Clear
3:15 PM 70.7 °F 37.8 °F 30% 30.04 in 10.0 mi North - - N/A   Clear
3:35 PM 72.0 °F 37.0 °F 28% 30.03 in 10.0 mi North - - N/A   Clear
3:55 PM 71.8 °F 35.8 °F 27% 30.02 in 10.0 mi North - - N/A   Clear
4:15 PM 72.3 °F 36.0 °F 26% 30.02 in 10.0 mi North - - N/A   Clear
4:35 PM 71.4 °F 39.6 °F 31% 30.03 in 10.0 mi North - - N/A   Clear
4:55 PM 69.1 °F 42.4 °F 38% 30.04 in 10.0 mi North - - N/A   Clear
5:15 PM 66.7 °F 38.8 °F 36% 30.03 in 10.0 mi North - - N/A   Clear
5:35 PM 61.5 °F 45.1 °F 55% 30.04 in 10.0 mi North - - N/A   Clear
5:55 PM 59.9 °F 44.2 °F 56% 30.04 in 10.0 mi North - - N/A   Clear
6:15 PM 58.6 °F 45.0 °F 60% 30.03 in 10.0 mi North - - N/A   Clear
6:35 PM 57.0 °F 45.1 °F 64% 30.04 in 10.0 mi North - - N/A   Clear
6:55 PM 55.6 °F 44.6 °F 67% 30.03 in 10.0 mi North - - N/A   Clear
7:15 PM 54.1 °F 46.6 °F 76% 30.04 in 10.0 mi North - - N/A   Clear
7:35 PM 52.2 °F 45.1 °F 77% 30.04 in 10.0 mi North - - N/A   Clear
7:55 PM 51.1 °F 44.6 °F 78% 30.04 in 10.0 mi North - - N/A   Clear
8:15 PM 49.6 °F 43.3 °F 79% 30.04 in 10.0 mi North - - N/A   Clear
8:35 PM 48.9 °F 43.2 °F 80% 30.04 in 10.0 mi North - - N/A   Clear
8:55 PM 48.4 °F 41.5 °F 77% 30.05 in 10.0 mi North - - N/A   Clear
9:15 PM 47.1 °F 42.1 °F 83% 30.05 in 10.0 mi North - - N/A   Clear
9:35 PM 46.6 °F 41.9 °F 84% 30.06 in 10.0 mi North - - N/A   Clear
9:55 PM 46.4 °F 42.1 °F 85% 30.06 in 10.0 mi North - - N/A   Clear
10:15 PM 45.9 °F 42.1 °F 87% 30.06 in 10.0 mi North - - N/A   Clear
10:35 PM 45.0 °F 41.9 °F 89% 30.07 in 10.0 mi North - - N/A   Clear
10:55 PM 44.8 °F 42.4 °F 91% 30.07 in 10.0 mi North - - N/A   Clear
11:15 PM 44.2 °F 41.9 °F 91% 30.08 in 10.0 mi North - - N/A   Clear
11:35 PM 43.9 °F 41.4 °F 91% 30.08 in 10.0 mi North - - N/A   Clear
11:55 PM 43.3 °F 41.2 °F 92% 30.09 in 10.0 mi North - - N/A   Clear